AirNav   Air Wisconsin pilot careers
 
 1618 users online  

38I Weller Airport
Urbana, Ohio, USA

GOING TO URBANA?


FAA INFORMATION EFFECTIVE 11 OCTOBER 2018

Location

FAA Identifier: 38I
Lat/Long: 40-05-28.2100N / 083-41-21.7400W
40-05.470167N / 083-41.362333W
40.0911694 / -83.6893722
(estimated)
Elevation: 1150 ft. / 351 m (estimated)
Variation: 04W (1985)
From city: 3 miles SE of URBANA, OH
Time zone: UTC -4 (UTC -5 during Standard Time)
Zip code: 43078

Airport Operations

Airport use: Open to the public
Activation date: 11/1966
Control tower: no
ARTCC: INDIANAPOLIS CENTER
FSS: DAYTON FLIGHT SERVICE STATION
NOTAMs facility: DAY (NOTAM-D service available)
Attendance: IREG
Wind indicator: yes
Segmented circle: no

Airport Communications

CTAF/UNICOM: 123.0
WX AWOS-3 at I74 (4 nm NW): 118.325 (937-484-5863)
WX AWOS-3PT at UYF (14 nm SE): 120.85 (740-852-2844)
WX AWOS-3PT at SGH (17 nm SW): 134.975
WX AWOS-3 at MRT (17 nm NE): 119.275 (937-644-2967)
WX AWOS-3 at EDJ (18 nm N): 118.075 (937-599-4654)

Nearby radio navigation aids

VOR radial/distance  VOR name  Freq  Var
SGHr029/16.9SPRINGFIELD VOR/DME113.2004W
RODr131/20.1ROSEWOOD VORTAC117.5005W
DQNr083/32.8DAYTON VOR/DME114.5001W

 
NDB name  Hdg/Dist  Freq  Var  ID
CLARK COUNTY022/13.734104WCCJ -.-. -.-. .---
COURT HOUSE341/32.541406WCSS -.-. ... ...

Airport Services

Parking: tiedowns
Airframe service: NONE
Powerplant service: NONE
Bottled oxygen: NONE
Bulk oxygen: NONE

Runway Information

Runway 9/27

Dimensions: 2534 x 75 ft. / 772 x 23 m
Surface: turf, in good condition
Runway edge markings: 09/27 OUTLINED WITH YELLOW TIRES.
RUNWAY 9  RUNWAY 27
Latitude: 40-05.449167N40-05.491000N
Longitude: 083-41.645000W083-41.079333W
Elevation: 1150.0 ft.1150.0 ft.
Gradient: 0.8%0.8%
Traffic pattern: leftleft
Runway end identifier lights: nono
Obstructions: 75 ft. trees, 40 ft. left of centerline25 ft. pline, 45 ft. from runway, 125 ft. left of centerline, 1:1 slope to clear

Airport Ownership and Management from official FAA records

Ownership: Privately-owned
Owner: CHRISTOPHER COOK
4923 TROY RD
SPRINGFIELD, OH 45502
Phone 937-360-5308
ARPT PHYSICAL LOCATION JUST NORTH OF 3138 EAST ROUTE 29, URBANA OH 43078.
Manager: CHRISTOPHER COOK
4923 TROY RD
SPRINGFIELD, OH 45502
Phone 937-360-5308

Airport Operational Statistics

Aircraft operations: avg 25/month *
67% local general aviation
33% transient general aviation
* for 12-month period ending 03 September 2016

Instrument Procedures

There are no published instrument procedures at 38I.

Some nearby airports with instrument procedures:

I74 - Grimes Field Airport (4 nm NW)
KUYF - Madison County Airport (14 nm SE)
KSGH - Springfield-Beckley Municipal Airport (17 nm SW)
KMRT - Union County Airport (17 nm NE)
KEDJ - Bellefontaine Regional Airport (18 nm N)
 
Loc | Ops | Rwys | IFR | FBO | Links
Com | Nav | Svcs | Stats | Notes


 
Area around 38I (Weller Airport)
 
Road maps at: MapQuest Bing Google
 
Aerial photo
WARNING: Photo may not be current or correct
Aerial photo of 38I (Weller Airport)
Photo taken 12-Oct-2014
looking north.

Do you have a better or more recent aerial photo of Weller Airport that you would like to share? If so, please send us your photo.

 
Sectional chart

 
Airport distance calculator
Flying to Weller Airport? Find the distance to fly.

From to 38I

Sunrise and sunset
Times for 15-Oct-2018
 Local
(UTC-4)
 Zulu
(UTC)
Morning civil twilight07:1911:19
Sunrise07:4611:46
Sunset18:5522:55
Evening civil twilight19:2223:22

Current date and time
Zulu (UTC)  15-Oct-2018 15:47:14
Local (UTC-4)  15-Oct-2018 11:47:14
 
METAR
KUYF 
14nm SE 
151535Z AUTO 27008G18KT 5SM DZ SCT009 BKN018 OVC025 12/11 A3005 RMK AO2
KMRT 
17nm NE 
151538Z AUTO 27006KT 1 1/2SM SCT008 BKN013 OVC020 12/11 A3005 RMK AO2 P0001 T01180110
KSGH 
17nm S 
151456Z AUTO 26011KT 3SM -RA BR BKN006 OVC013 12/12 A3005 RMK AO2 RAB22 CIG 005V008 SLP179 P0000 60000 T01220122 53021 $
KEDJ 
18nm N 
151525Z AUTO 30009G14KT 4SM SCT005 BKN010 OVC016 09/09 A3006 RMK AO1
KFFO 
23nm SW 
151526Z 28011G16KT 2SM -RA BR BKN007 BKN024 OVC036 12/11 A3006 RMK AO2A SLP183
KDAY 
27nm SW 
151525Z 30010KT 5SM BR SCT007 OVC014 11/11 A3008 RMK AO2 RAE09 P0001 T01110106
KOSU 
28nm E 
151528Z 27009KT 5SM -RA BR SCT009 BKN014 OVC019 13/12 A3003 RMK AO2 RAB1457 P0001 T01280122
TAF
KFFO 
23nm SW 
151250Z 1512/1617 25009KT 9999 -SHRA OVC007 QNH2994INS BECMG 1514/1515 30012KT 9999 NSW OVC010 QNH2994INS BECMG 1518/1519 31012G18KT 9999 SCT020 SCT120 QNH2994INS BECMG 1523/1524 30009KT 9999 FEW250 QNH2994INS TX15/1516Z TN02/1611Z
KDAY 
27nm SW 
151350Z 1514/1612 27010KT P6SM -RA OVC007 TEMPO 1514/1516 2SM -RA BR FM151600 30012G18KT P6SM OVC012 FM151900 31013G19KT P6SM BKN022 FM152200 31008KT P6SM SCT025 FM160100 31003KT P6SM SKC
NOTAMs
Click for the latest NOTAMs
NOTAMs are issued by the DoD/FAA and will open in a separate window not controlled by AirNav.

 

 
 

Would you like to see your business listed on this page?

 If your business provides an interesting product or service to pilots, flight crews, aircraft, or users of the Weller Airport, you should consider listing it here.  To start the listing process, click on the button below
 
Add a business
 

Other Pages about Weller Airport

Update a link
 
Copyright © AirNav, LLC. All rights reserved. Privacy Policy  Contact